Date String (YYYY-MM-DD hh:mm:ss) UTC,Instrument flags,Ambient pressure (hPa),Sample flow (lpm),Bypass flow (lpm),Sample temperature (°C),Ambient temperature (°C),ASC tube jacket temperature (°C),LED temperature (°C),Box temperature (°C),Sample RH (%),Span deviation,Mass concentration (μg/m³),Mass concentration (μg/m³),Mass concentration (μg/m³)
DateTimeUTC,F1_M11,P_M11,Q1_M11,Q2_M11,T1_M11,T2_M11,T3_M11,T4_M11,T5_M11,U1_M11,ZSPAN_M11,X0_M11,X2_M11,X1_M11
2022-11-23 23:00:00,,0821.2,4.99,0.00,21.8,21.7,00.0,30.5,23.9,10.3,0000.0,0001.98,0000.73,0000.56
2022-11-23 23:01:00,,0821.3,5.00,0.00,21.8,21.5,00.0,30.6,23.8,10.2,0000.0,0001.63,0000.74,0000.57
2022-11-23 23:02:00,,0821.4,5.02,0.00,21.8,21.2,00.0,30.6,23.8,10.1,0000.0,0001.31,0000.76,0000.58
2022-11-23 23:03:00,,0821.4,5.00,0.00,21.8,21.0,00.0,30.6,23.7,10.0,0000.0,0001.21,0000.75,0000.59
2022-11-23 23:04:00,,0821.4,5.00,0.00,21.8,20.9,00.0,30.6,23.4,10.7,0000.0,0001.17,0000.74,0000.59
2022-11-23 23:05:00,,0821.4,5.00,0.00,21.8,20.8,00.0,30.7,23.4,10.9,0000.0,0001.12,0000.71,0000.59
2022-11-23 23:06:00,,0821.5,5.00,0.00,21.8,20.7,00.0,30.7,23.4,10.5,0000.0,0001.13,0000.71,0000.61
2022-11-23 23:07:00,,0821.6,5.00,0.00,21.8,20.6,00.0,30.7,23.5,10.3,0000.0,0001.18,0000.73,0000.62
2022-11-23 23:08:00,,0821.6,4.99,0.00,21.8,20.5,00.0,30.7,23.5,10.3,0000.0,0001.20,0000.75,0000.63
2022-11-23 23:09:00,,0821.6,4.99,0.00,21.8,20.5,00.0,30.7,23.5,10.6,0000.0,0001.17,0000.74,0000.63
2022-11-23 23:10:00,,0821.6,5.00,0.00,21.8,20.5,00.0,30.7,23.4,10.6,0000.0,0001.65,0000.71,0000.64
2022-11-23 23:11:00,,0821.6,5.02,0.00,21.8,20.4,00.0,30.7,23.4,10.8,0000.0,0001.73,0000.71,0000.65
2022-11-23 23:12:00,,0821.6,4.99,0.00,21.7,20.4,00.0,30.7,23.4,10.4,0000.0,0001.79,0000.74,0000.65
2022-11-23 23:13:00,,0821.7,4.99,0.00,21.7,20.4,00.0,30.7,23.4,09.7,0000.0,0001.80,0000.74,0000.64
2022-11-23 23:14:00,,0821.7,5.02,0.00,21.7,20.4,00.0,30.7,23.4,09.6,0000.0,0001.81,0000.76,0000.65
2022-11-23 23:15:00,,0821.7,4.99,0.00,21.7,20.3,00.0,30.7,23.4,09.7,0000.0,0001.83,0000.77,0000.65
2022-11-23 23:16:00,,0821.7,5.00,0.00,21.7,20.3,00.0,30.7,23.4,10.1,0000.0,0001.83,0000.77,0000.65
2022-11-23 23:17:00,,0821.8,5.01,0.00,21.7,20.3,00.0,30.7,23.4,10.1,0000.0,0001.84,0000.77,0000.64
2022-11-23 23:18:00,,0821.8,4.99,0.00,21.7,20.3,00.0,30.7,23.3,09.8,0000.0,0001.81,0000.76,0000.64
2022-11-23 23:19:00,,0821.8,4.99,0.00,21.7,20.3,00.0,30.7,23.3,10.3,0000.0,0001.80,0000.75,0000.64
2022-11-23 23:20:00,,0821.8,5.02,0.00,21.7,20.2,00.0,30.7,23.2,10.3,0000.0,0001.83,0000.76,0000.63
2022-11-23 23:21:00,,0821.9,4.99,0.00,21.7,20.2,00.0,30.7,23.3,10.0,0000.0,0001.32,0000.77,0000.64
2022-11-23 23:22:00,,0821.9,5.00,0.00,21.6,20.2,00.0,30.7,23.2,10.0,0000.0,0001.11,0000.77,0000.63
2022-11-23 23:23:00,,0821.9,5.00,0.00,21.6,20.2,00.0,30.7,23.2,10.3,0000.0,0001.05,0000.74,0000.63
2022-11-23 23:24:00,,0822.0,5.00,0.00,21.6,20.1,00.0,30.6,23.1,10.0,0000.0,0001.01,0000.72,0000.62
2022-11-23 23:25:00,,0822.1,4.98,0.00,21.6,20.1,00.0,30.6,23.1,10.0,0000.0,0000.99,0000.71,0000.61
2022-11-23 23:26:00,,0822.0,5.01,0.00,21.6,20.1,00.0,30.6,23.1,10.1,0000.0,0001.04,0000.73,0000.61
2022-11-23 23:27:00,,0822.1,5.00,0.00,21.6,20.1,00.0,30.6,23.2,09.9,0000.0,0001.07,0000.74,0000.61
2022-11-23 23:28:00,,0822.1,5.00,0.00,21.6,20.0,00.0,30.6,23.2,09.8,0000.0,0001.06,0000.74,0000.61
2022-11-23 23:29:00,,0822.1,4.99,0.00,21.5,20.0,00.0,30.6,23.1,09.9,0000.0,0001.04,0000.73,0000.61
2022-11-23 23:30:00,,0822.2,5.01,0.00,21.5,20.0,00.0,30.6,23.2,09.7,0000.0,0001.04,0000.73,0000.60
2022-11-23 23:31:00,,0822.1,5.00,0.00,21.5,20.0,00.0,30.5,23.2,09.8,0000.0,0001.05,0000.73,0000.60
2022-11-23 23:32:00,,0822.1,4.99,0.00,21.5,20.0,00.0,30.5,23.2,09.7,0000.0,0001.01,0000.71,0000.59
2022-11-23 23:33:00,,0822.2,5.01,0.00,21.5,20.0,00.0,30.5,23.1,09.5,0000.0,0001.04,0000.72,0000.58
2022-11-23 23:34:00,,0822.3,5.00,0.00,21.5,20.0,00.0,30.5,23.0,10.1,0000.0,0001.01,0000.70,0000.57
2022-11-23 23:35:00,,0822.3,4.99,0.00,21.5,19.9,00.0,30.5,23.1,10.1,0000.0,0001.09,0000.72,0000.56
2022-11-23 23:36:00,,0822.3,5.02,0.00,21.5,19.9,00.0,30.5,23.0,10.3,0000.0,0001.09,0000.71,0000.56
2022-11-23 23:37:00,,0822.4,5.01,0.00,21.4,19.9,00.0,30.5,23.0,09.9,0000.0,0001.02,0000.68,0000.55
2022-11-23 23:38:00,,0822.4,4.99,0.00,21.4,19.9,00.0,30.5,23.0,10.0,0000.0,0000.99,0000.66,0000.54
2022-11-23 23:39:00,,0822.4,5.01,0.00,21.4,19.9,00.0,30.5,22.9,09.9,0000.0,0000.93,0000.62,0000.53
2022-11-23 23:40:00,,0822.5,5.01,0.00,21.4,19.9,00.0,30.5,22.9,09.7,0000.0,0001.00,0000.64,0000.52
2022-11-23 23:41:00,,0822.4,4.99,0.00,21.4,19.9,00.0,30.4,22.9,10.0,0000.0,0001.02,0000.64,0000.52
2022-11-23 23:42:00,,0822.4,5.00,0.00,21.4,19.9,00.0,30.4,23.0,10.1,0000.0,0000.97,0000.61,0000.51
2022-11-23 23:43:00,,0822.4,5.01,0.00,21.4,19.9,00.0,30.4,23.0,10.3,0000.0,0000.92,0000.59,0000.50
2022-11-23 23:44:00,,0822.4,4.99,0.00,21.4,19.9,00.0,30.4,23.0,10.1,0000.0,0000.90,0000.59,0000.51
2022-11-23 23:45:00,,0822.4,5.00,0.00,21.3,19.9,00.0,30.4,22.9,09.8,0000.0,0001.02,0000.63,0000.51
2022-11-23 23:46:00,,0822.5,5.01,0.00,21.3,20.0,00.0,30.4,22.9,09.9,0000.0,0000.97,0000.62,0000.52
2022-11-23 23:47:00,,0822.5,4.99,0.00,21.4,21.0,00.0,30.3,23.3,10.0,0000.0,0000.96,0000.61,0000.51
2022-11-23 23:48:00,,0822.6,5.00,0.00,21.6,21.9,00.0,30.3,23.6,09.9,0000.0,0001.05,0000.64,0000.51
2022-11-23 23:49:00,,0822.6,4.99,0.00,21.7,22.0,00.0,30.4,23.8,09.9,0000.0,0001.10,0000.66,0000.52
2022-11-23 23:50:00,,0822.7,4.99,0.00,21.7,21.7,00.0,30.4,23.8,10.0,0000.0,0001.20,0000.67,0000.52
2022-11-23 23:51:00,,0822.7,5.00,0.00,21.7,21.4,00.0,30.5,23.7,10.3,0000.0,0001.11,0000.65,0000.52
2022-11-23 23:52:00,,0822.7,5.01,0.00,21.7,21.2,00.0,30.5,23.7,10.6,0000.0,0001.11,0000.65,0000.52
2022-11-23 23:53:00,,0822.7,5.00,0.00,21.8,21.0,00.0,30.5,23.6,10.6,0000.0,0001.14,0000.67,0000.53
2022-11-23 23:54:00,,0822.7,5.01,0.00,21.8,20.9,00.0,30.5,23.6,10.3,0000.0,0001.15,0000.67,0000.53
2022-11-23 23:55:00,,0822.8,5.00,0.00,21.8,20.8,00.0,30.6,23.7,10.6,0000.0,0001.13,0000.67,0000.54
2022-11-23 23:56:00,,0822.8,5.00,0.00,21.8,20.7,00.0,30.6,23.7,10.7,0000.0,0001.04,0000.65,0000.54
2022-11-23 23:57:00,,0822.7,5.00,0.00,21.8,20.6,00.0,30.6,23.6,10.4,0000.0,0001.00,0000.64,0000.54
2022-11-23 23:58:00,,0822.9,5.01,0.00,21.8,20.6,00.0,30.6,23.5,10.2,0000.0,0001.00,0000.64,0000.54
2022-11-23 23:59:00,,0822.9,5.00,0.00,21.8,20.5,00.0,30.6,23.4,10.5,0000.0,0000.92,0000.62,0000.54
